When you browse on this site, cookies collect data to enhance your experience and personalize the content and advertising you see.
Visit our Privacy Policy to learn more. By continuing to use the site, you agree to this use of cookies and data.
  • In Switzerland
  • List of Countries
  • For 7 days
  • Water Temperature
  • Weather Map
  • Weather Widgets
  • user-avatar
    Login

    Hourly Weather Barnsley

    Today, 18 September, Wednesday

    Time Temperature Precipitation Wind Pressure Humidity
    00:00 +10°C° 0 mm 1 mps 761 mmHg 76%
    01:00 +10°C° 0 mm 1 mps 761 mmHg 77%
    02:00 +10°C° 0 mm 1 mps 761 mmHg 77%
    03:00 +9°C° 0 mm 1 mps 761 mmHg 78%
    04:00 +9°C° 0 mm 1 mps 761 mmHg 79%
    05:00 +9°C° 0 mm 1 mps 761 mmHg 80%
    06:00 +9°C° 0 mm 1 mps 761 mmHg 79%
    07:00 +11°C° 0 mm 1 mps 761 mmHg 75%
    08:00 +12°C° 0 mm 1 mps 761 mmHg 70%
    09:00 +14°C° 0 mm 1 mps 761 mmHg 66%
    10:00 +15°C° 0 mm 1 mps 761 mmHg 61%
    11:00 +16°C° 0 mm 2 mps 761 mmHg 56%
    12:00 +18°C° 0 mm 2 mps 761 mmHg 51%
    13:00 +18°C° 0 mm 2 mps 761 mmHg 53%
    14:00 +18°C° 0 mm 2 mps 761 mmHg 54%
    15:00 +18°C° 0 mm 2 mps 761 mmHg 55%
    16:00 +17°C° 0 mm 2 mps 761 mmHg 61%
    17:00 +16°C° 0 mm 2 mps 761 mmHg 66%
    18:00 +15°C° 0 mm 2 mps 761 mmHg 71%
    19:00 +15°C° 0 mm 1 mps 761 mmHg 74%
    20:00 +14°C° 0 mm 1 mps 762 mmHg 77%
    21:00 +13°C° 0 mm 1 mps 762 mmHg 79%
    22:00 +13°C° 0 mm 1 mps 762 mmHg 81%
    23:00 +12°C° 0 mm 1 mps 762 mmHg 82%

    Tomorrow, 19 September, Thursday

    Time Temperature Precipitation Wind Pressure Humidity
    00:00 +12°C° 0 mm 1 mps 762 mmHg 83%
    01:00 +12°C° 0 mm 1 mps 762 mmHg 83%
    02:00 +12°C° 0 mm 1 mps 762 mmHg 84%
    03:00 +11°C° 0 mm 0 mps 762 mmHg 84%
    04:00 +11°C° 0 mm 0 mps 762 mmHg 84%
    05:00 +11°C° 0 mm 0 mps 762 mmHg 85%
    06:00 +11°C° 0 mm 0 mps 762 mmHg 85%
    07:00 +12°C° 0 mm 0 mps 762 mmHg 80%
    08:00 +15°C° 0 mm 1 mps 762 mmHg 74%
    09:00 +16°C° 0 mm 1 mps 762 mmHg 68%
    10:00 +19°C° 0 mm 1 mps 762 mmHg 64%
    11:00 +20°C° 0 mm 1 mps 762 mmHg 60%
    12:00 +21°C° 0 mm 1 mps 762 mmHg 56%
    13:00 +22°C° 0 mm 1 mps 762 mmHg 55%
    14:00 +22°C° 0 mm 1 mps 762 mmHg 54%
    15:00 +22°C° 0 mm 1 mps 762 mmHg 54%
    16:00 +21°C° 0 mm 1 mps 762 mmHg 59%
    17:00 +20°C° 0 mm 1 mps 761 mmHg 65%
    18:00 +19°C° 0 mm 1 mps 761 mmHg 70%
    19:00 +18°C° 0 mm 1 mps 761 mmHg 73%
    20:00 +16°C° 0 mm 1 mps 761 mmHg 76%
    21:00 +15°C° 0 mm 1 mps 762 mmHg 79%
    22:00 +15°C° 0 mm 1 mps 761 mmHg 80%
    23:00 +15°C° 0 mm 1 mps 761 mmHg 81%

    Day after tomorrow, 20 September, Friday

    Time Temperature Precipitation Wind Pressure Humidity
    00:00 +14°C° 0 mm 1 mps 761 mmHg 82%
    01:00 +14°C° 0 mm 1 mps 761 mmHg 83%
    02:00 +14°C° 0 mm 1 mps 761 mmHg 83%
    03:00 +14°C° 0 mm 1 mps 760 mmHg 83%
    04:00 +13°C° 0 mm 1 mps 760 mmHg 84%
    05:00 +13°C° 0 mm 1 mps 760 mmHg 84%
    06:00 +13°C° 0 mm 1 mps 759 mmHg 84%
    07:00 +14°C° 0 mm 1 mps 759 mmHg 79%
    08:00 +15°C° 0 mm 2 mps 759 mmHg 73%
    09:00 +17°C° 0 mm 2 mps 759 mmHg 68%
    10:00 +18°C° 0 mm 3 mps 759 mmHg 65%
    11:00 +18°C° 0 mm 3 mps 759 mmHg 62%
    12:00 +19°C° 0 mm 4 mps 758 mmHg 60%
    13:00 +20°C° 0 mm 4 mps 758 mmHg 59%
    14:00 +20°C° 0 mm 4 mps 757 mmHg 59%
    15:00 +20°C° 0 mm 4 mps 756 mmHg 59%
    16:00 +19°C° 0 mm 4 mps 756 mmHg 62%
    17:00 +18°C° 0 mm 4 mps 755 mmHg 66%
    18:00 +17°C° 0 mm 4 mps 755 mmHg 70%
    19:00 +15°C° 0 mm 4 mps 755 mmHg 70%
    20:00 +14°C° 0 mm 4 mps 754 mmHg 70%
    21:00 +13°C° 0 mm 5 mps 754 mmHg 71%
    22:00 +12°C° 0 mm 4 mps 754 mmHg 73%
    23:00 +12°C° 0 mm 4 mps 753 mmHg 75%

    21 September, Saturday

    Time Temperature Precipitation Wind Pressure Humidity
    00:00 +11°C° 0 mm 4 mps 753 mmHg 78%
    01:00 +11°C° 0 mm 4 mps 752 mmHg 80%
    02:00 +11°C° 0 mm 3 mps 752 mmHg 82%
    03:00 +11°C° 0 mm 3 mps 752 mmHg 84%
    04:00 +11°C° 0 mm 3 mps 751 mmHg 83%
    05:00 +11°C° 0 mm 3 mps 750 mmHg 83%
    06:00 +11°C° 0 mm 3 mps 750 mmHg 83%
    07:00 +12°C° 0 mm 4 mps 749 mmHg 76%
    08:00 +13°C° 0 mm 4 mps 749 mmHg 69%
    09:00 +15°C° 0 mm 5 mps 749 mmHg 62%
    10:00 +16°C° 0 mm 5 mps 748 mmHg 58%
    11:00 +17°C° 0 mm 5 mps 748 mmHg 54%
    12:00 +19°C° 0 mm 5 mps 747 mmHg 50%
    13:00 +20°C° 0 mm 5 mps 747 mmHg 49%
    14:00 +20°C° 0 mm 5 mps 746 mmHg 49%
    15:00 +21°C° 0 mm 5 mps 746 mmHg 49%
    16:00 +20°C° 0 mm 4 mps 745 mmHg 53%
    17:00 +19°C° 0 mm 4 mps 745 mmHg 57%
    18:00 +18°C° 0 mm 4 mps 745 mmHg 61%
    19:00 +17°C° 0 mm 3 mps 744 mmHg 65%
    20:00 +16°C° 0 mm 3 mps 744 mmHg 68%
    21:00 +14°C° 0 mm 3 mps 744 mmHg 72%
    22:00 +15°C° 0 mm 2 mps 743 mmHg 73%
    23:00 +15°C° 0 mm 2 mps 743 mmHg 74%

    22 September, Sunday

    Time Temperature Precipitation Wind Pressure Humidity
    00:00 +15°C° 0 mm 2 mps 743 mmHg 76%
    01:00 +15°C° 0.2 mm 2 mps 742 mmHg 78%
    02:00 +15°C° 0.2 mm 2 mps 742 mmHg 80%
    03:00 +15°C° 0.2 mm 2 mps 742 mmHg 82%
    04:00 +15°C° 0.1 mm 2 mps 741 mmHg 85%
    05:00 +15°C° 0.1 mm 2 mps 741 mmHg 88%
    06:00 +15°C° 0.1 mm 1 mps 741 mmHg 91%
    07:00 +16°C° 0.2 mm 2 mps 741 mmHg 91%
    08:00 +16°C° 0.2 mm 2 mps 742 mmHg 92%
    09:00 +17°C° 0.2 mm 3 mps 742 mmHg 92%
    10:00 +18°C° 0.1 mm 3 mps 742 mmHg 84%
    11:00 +18°C° 0.1 mm 3 mps 742 mmHg 77%
    12:00 +19°C° 0.1 mm 4 mps 742 mmHg 69%
    13:00 +19°C° 0 mm 4 mps 742 mmHg 66%
    14:00 +19°C° 0 mm 4 mps 742 mmHg 64%
    15:00 +19°C° 0 mm 4 mps 742 mmHg 61%
    16:00 +18°C° 0 mm 4 mps 742 mmHg 64%
    17:00 +17°C° 0 mm 3 mps 742 mmHg 67%
    18:00 +16°C° 0 mm 3 mps 742 mmHg 70%
    19:00 +16°C° 0 mm 3 mps 743 mmHg 73%
    20:00 +14°C° 0 mm 3 mps 743 mmHg 75%
    21:00 +14°C° 0 mm 3 mps 744 mmHg 78%
    22:00 +13°C° 0 mm 4 mps 744 mmHg 78%
    23:00 +13°C° 0 mm 4 mps 744 mmHg 78%

    23 September, Monday

    Time Temperature Precipitation Wind Pressure Humidity
    00:00 +12°C° 0 mm 4 mps 745 mmHg 78%
    01:00 +12°C° 0 mm 4 mps 745 mmHg 80%
    02:00 +11°C° 0 mm 4 mps 745 mmHg 81%
    03:00 +11°C° 0 mm 4 mps 745 mmHg 82%
    04:00 +11°C° 0 mm 3 mps 745 mmHg 83%
    05:00 +10°C° 0 mm 3 mps 745 mmHg 84%
    06:00 +10°C° 0 mm 3 mps 745 mmHg 85%
    07:00 +11°C° 0 mm 3 mps 746 mmHg 79%
    08:00 +13°C° 0 mm 3 mps 746 mmHg 74%
    09:00 +14°C° 0 mm 3 mps 746 mmHg 68%
    10:00 +15°C° 0 mm 4 mps 746 mmHg 66%
    11:00 +17°C° 0 mm 4 mps 745 mmHg 63%
    12:00 +17°C° 0 mm 5 mps 745 mmHg 61%
    13:00 +17°C° 0.2 mm 5 mps 745 mmHg 66%
    14:00 +17°C° 0.2 mm 4 mps 744 mmHg 71%
    15:00 +17°C° 0.2 mm 4 mps 744 mmHg 76%
    16:00 +15°C° 0.5 mm 4 mps 744 mmHg 80%
    17:00 +15°C° 0.5 mm 4 mps 743 mmHg 84%
    18:00 +14°C° 0.5 mm 4 mps 743 mmHg 88%
    19:00 +14°C° 0.2 mm 3 mps 743 mmHg 90%
    20:00 +14°C° 0.2 mm 3 mps 744 mmHg 91%
    21:00 +16°C° 0.2 mm 3 mps 744 mmHg 92%
    22:00 +14°C° 0 mm 3 mps 744 mmHg 92%
    23:00 +14°C° 0 mm 3 mps 744 mmHg 92%
    Show more